Middleton, WI

5:54 AM CDT on September 29, 2016 (GMT -0500)
Middleton

Weather History for KC29 - August, 2014

Change the Weather History Date:

Saturday, August 2, 2014

  Actual Average (KMSN) Record (KMSN)
Temperature  
Mean Temperature 69 °F 71 °F  
Max Temperature 83 °F 81 °F 98 °F (1988)
Min Temperature 55 °F 61 °F 44 °F (1965)
Degree Days  
Heating Degree Days 0 0  
Month to date heating degree days 0  
Since 1 June heating degree days 70  
Since 1 July heating degree days 10  
Cooling Degree Days 4 6  
Month to date cooling degree days 12  
Year to date cooling degree days 368  
Since 1 June cooling degree days 338  
Growing Degree Days 19 (Base 50)    
Moisture  
Dew Point 59 °F    
Average Humidity 71    
Maximum Humidity 98    
Minimum Humidity 41    
Precipitation  
Precipitation 0.00 in 0.15 in 3.40 in (2001)
Month to date precipitation 0.28  
Year to date precipitation 20.83  
Snow  
Snow 0.00 in 0.00 in 0.00 in ()
Month to date snowfall 0.0  
Since 1 June snowfall 0.0  
Since 1 July snowfall 0.0  
Snow Depth -    
Sea Level Pressure  
Sea Level Pressure 30.14 in    
Wind  
Wind Speed 1 mph (ESE)    
Max Wind Speed 5 mph    
Max Gust Speed -    
Visibility 9 miles    
Events      
T = Trace of Precipitation, MM = Missing Value Source: NWS Daily Summary

Daily Weather History Graph

Daily Weather History Graph

Search for Another Location

Airport or City:

Trip Planner

Search our weather history database for the weather conditions in past years. The results will help you decide how hot, cold, wet, or windy it might be!

Date:

Astronomy

Aug. 02, 2014 Rise Set
Actual Time 5:49 AM CDT 8:18 PM CDT
Civil Twilight 5:17 AM CDT 8:50 PM CDT
Nautical Twilight 4:37 AM CDT 9:30 PM CDT
Astronomical Twilight 3:52 AM CDT 10:15 PM CDT
Moon 12:22 PM CDT (8/2) 11:24 PM CDT (8/2)
Length of Visible Light 15h 32m
Length of Day
14h 28m
Waxing Crescent, 37% of the Moon is Illuminated
Aug 2
Waxing Crescent
Aug 3
First Quarter
Aug 10
Full
Aug 17
Last Quarter
Aug 25
New

Hourly Weather History & Observations

Time (CDT) Temp. Heat Index Dew Point Humidity Pressure Visibility Wind Dir Wind Speed Gust Speed Precip Events Conditions
12:35 AM 62.1 °F - 56.5 °F 82% 30.13 in 10.0 mi Calm Calm - N/A   Clear
1:15 AM 60.3 °F - 57.4 °F 90% 30.11 in 10.0 mi NW 3.5 mph - N/A   Clear
1:35 AM 58.5 °F - 56.5 °F 93% 30.11 in 10.0 mi Calm Calm - N/A   Clear
1:55 AM 58.6 °F - 56.1 °F 91% 30.11 in 10.0 mi Calm Calm - N/A   Clear
2:15 AM 58.3 °F - 56.3 °F 93% 30.11 in 10.0 mi Calm Calm - N/A   Clear
2:55 AM 57.2 °F - 55.8 °F 95% 30.11 in 7.0 mi Calm Calm - N/A   Clear
3:35 AM 56.5 °F - 55.0 °F 95% 30.12 in 7.0 mi Calm Calm - N/A   Clear
4:15 AM 56.1 °F - 55.2 °F 97% 30.12 in 7.0 mi Calm Calm - N/A   Clear
4:35 AM 55.9 °F - 54.9 °F 96% 30.13 in 7.0 mi Calm Calm - N/A   Clear
4:55 AM 55.8 °F - 54.9 °F 97% 30.14 in 5.0 mi Calm Calm - N/A   Clear
5:15 AM 55.6 °F - 54.7 °F 97% 30.14 in 4.0 mi Calm Calm - N/A   Clear
5:35 AM 55.4 °F - 54.5 °F 97% 30.15 in 1.8 mi Calm Calm - N/A   Unknown
5:55 AM 55.2 °F - 54.5 °F 97% 30.15 in 2.0 mi Calm Calm - N/A   Mostly Cloudy
6:15 AM 55.9 °F - 55.4 °F 98% 30.16 in 3.0 mi Calm Calm - N/A   Overcast
6:35 AM 56.3 °F - 55.6 °F 97% 30.16 in 4.0 mi Calm Calm - N/A   Mostly Cloudy
6:55 AM 57.4 °F - 56.7 °F 97% 30.16 in 5.0 mi Calm Calm - N/A   Clear
7:15 AM 59.0 °F - 58.1 °F 97% 30.17 in 5.0 mi Calm Calm - N/A   Clear
7:35 AM 60.4 °F - 59.7 °F 97% 30.17 in 7.0 mi Calm Calm - N/A   Clear
7:55 AM 62.8 °F - 60.1 °F 91% 30.17 in 10.0 mi Calm Calm - N/A   Clear
8:15 AM 65.5 °F - 59.7 °F 82% 30.18 in 10.0 mi Calm Calm - N/A   Clear
8:35 AM 66.9 °F - 60.3 °F 79% 30.18 in 10.0 mi Calm Calm - N/A   Clear
8:55 AM 67.6 °F - 59.9 °F 76% 30.18 in 10.0 mi Calm Calm - N/A   Clear
9:15 AM 69.6 °F - 60.4 °F 73% 30.18 in 10.0 mi Calm Calm - N/A   Clear
9:35 AM 70.9 °F - 58.8 °F 66% 30.18 in 10.0 mi Calm Calm - N/A   Clear
9:55 AM 72.3 °F - 59.7 °F 64% 30.18 in 10.0 mi Calm Calm - N/A   Clear
10:15 AM 73.4 °F - 60.1 °F 63% 30.18 in 10.0 mi Calm Calm - N/A   Clear
10:35 AM 75.0 °F - 60.1 °F 60% 30.18 in 10.0 mi Calm Calm - N/A   Clear
10:55 AM 75.7 °F - 60.6 °F 59% 30.17 in 10.0 mi Calm Calm - N/A   Clear
11:15 AM 77.0 °F - 60.4 °F 56% 30.17 in 10.0 mi Calm Calm - N/A   Clear
11:35 AM 77.9 °F - 59.5 °F 53% 30.17 in 10.0 mi Calm Calm - N/A   Clear
12:15 PM 79.2 °F - 57.0 °F 46% 30.16 in 10.0 mi Calm Calm - N/A   Clear
12:35 PM 79.9 °F - 58.8 °F 48% 30.16 in 10.0 mi Calm Calm - N/A   Clear
12:55 PM 80.6 °F 81.0 °F 58.6 °F 47% 30.16 in 10.0 mi Calm Calm - N/A   Clear
1:15 PM 81.7 °F 81.9 °F 59.2 °F 46% 30.16 in 10.0 mi SW 4.6 mph - N/A   Clear
1:35 PM 81.3 °F 81.4 °F 57.9 °F 45% 30.15 in 10.0 mi Calm Calm - N/A   Scattered Clouds
1:55 PM 82.6 °F 82.3 °F 57.9 °F 43% 30.14 in 10.0 mi Calm Calm - N/A   Scattered Clouds
2:15 PM 80.4 °F 80.9 °F 58.6 °F 47% 30.14 in 10.0 mi Calm Calm - N/A   Scattered Clouds
2:35 PM 81.9 °F 81.9 °F 58.8 °F 45% 30.13 in 10.0 mi Calm Calm - N/A   Scattered Clouds
2:55 PM 81.3 °F 81.4 °F 58.1 °F 45% 30.13 in 10.0 mi NNW 3.5 mph - N/A   Mostly Cloudy
3:15 PM 83.7 °F 83.1 °F 57.7 °F 41% 30.13 in 10.0 mi Calm Calm - N/A   Mostly Cloudy
3:35 PM 81.5 °F 81.3 °F 56.5 °F 42% 30.12 in 10.0 mi Calm Calm - N/A   Scattered Clouds
3:55 PM 81.5 °F 81.7 °F 58.8 °F 46% 30.12 in 10.0 mi East 3.5 mph - N/A   Mostly Cloudy
4:15 PM 80.8 °F 81.4 °F 60.3 °F 49% 30.12 in 10.0 mi East 4.6 mph - N/A   Mostly Cloudy
4:35 PM 81.7 °F 81.9 °F 58.8 °F 46% 30.11 in 10.0 mi ESE 3.5 mph - N/A   Mostly Cloudy
4:55 PM 82.2 °F 82.7 °F 61.0 °F 48% 30.11 in 10.0 mi ENE 3.5 mph - N/A   Mostly Cloudy
5:15 PM 83.3 °F 82.8 °F 57.6 °F 41% 30.11 in 10.0 mi Calm Calm - N/A   Overcast
5:35 PM 83.5 °F 83.2 °F 58.8 °F 43% 30.11 in 10.0 mi Calm Calm - N/A   Mostly Cloudy
5:55 PM 82.9 °F 83.0 °F 59.4 °F 45% 30.11 in 10.0 mi SE 4.6 mph - N/A   Scattered Clouds
6:15 PM 82.4 °F 82.6 °F 59.7 °F 46% 30.10 in 10.0 mi SE 4.6 mph - N/A   Scattered Clouds
6:35 PM 81.9 °F 82.1 °F 59.2 °F 46% 30.10 in 10.0 mi ESE 4.6 mph - N/A   Scattered Clouds
6:55 PM 80.8 °F 81.5 °F 60.8 °F 50% 30.10 in 10.0 mi SE 4.6 mph - N/A   Scattered Clouds
7:15 PM 79.0 °F - 62.2 °F 56% 30.10 in 10.0 mi Calm Calm - N/A   Scattered Clouds
7:35 PM 79.0 °F - 59.4 °F 51% 30.10 in 10.0 mi Calm Calm - N/A   Clear
7:55 PM 77.9 °F - 60.6 °F 55% 30.11 in 10.0 mi Calm Calm - N/A   Clear
8:15 PM 75.2 °F - 60.4 °F 60% 30.10 in 10.0 mi Calm Calm - N/A   Clear
8:35 PM 70.9 °F - 64.8 °F 81% 30.10 in 10.0 mi Calm Calm - N/A   Clear
8:55 PM 70.5 °F - 63.5 °F 78% 30.11 in 10.0 mi Calm Calm - N/A   Clear
9:15 PM 69.1 °F - 65.8 °F 89% 30.11 in 10.0 mi Calm Calm - N/A   Scattered Clouds
9:35 PM 68.9 °F - 66.4 °F 92% 30.12 in 10.0 mi Calm Calm - N/A   Mostly Cloudy
9:55 PM 68.9 °F - 66.4 °F 92% 30.12 in 7.0 mi Calm Calm - N/A   Mostly Cloudy
10:15 PM 69.3 °F - 66.7 °F 92% 30.12 in 7.0 mi Calm Calm - N/A   Overcast
10:35 PM 68.9 °F - 66.4 °F 92% 30.13 in 7.0 mi Calm Calm - N/A   Mostly Cloudy
10:55 PM 68.0 °F - 65.1 °F 90% 30.13 in 10.0 mi Calm Calm - N/A   Clear
11:15 PM 68.2 °F - 64.8 °F 89% 30.13 in 10.0 mi Calm Calm - N/A   Clear
11:35 PM 66.6 °F - 64.2 °F 92% 30.13 in 10.0 mi Calm Calm - N/A   Clear
11:55 PM 65.1 °F - 63.0 °F 93% 30.13 in 7.0 mi Calm Calm - N/A   Clear